Location: Titusville
(28.6119°N, 80.8078°W)
Time: 00:54:19
(UTC-05:00)

Envisat - Visible Passes

Search period start: 22 January 2019 00:00
Search period end: 01 February 2019 00:00
Orbit: 764 x 766 km, 98.2° (Epoch: 20 January)

Date Brightness Start Highest point End Pass type
(mag) Time Alt. Az. Time Alt. Az. Time Alt. Az.
22 Jan 4.0 18:26:40 10° SE 18:30:43 24° ENE 18:34:45 10° NNE visible
22 Jan 5.0 20:05:16 10° SSW 20:09:32 27° W 20:13:50 10° NW visible
23 Jan 6.2 06:43:15 10° ENE 06:45:55 14° E 06:48:33 10° SE visible
23 Jan 3.2 19:27:41 10° S 19:32:43 70° WSW 19:37:47 10° NNW visible
24 Jan 3.2 18:51:16 10° SE 18:56:05 46° ENE 19:00:55 10° N visible
24 Jan 5.9 20:32:34 10° SW 20:35:13 14° W 20:37:52 10° WNW visible
25 Jan 4.3 18:16:07 10° ESE 18:19:36 19° ENE 18:23:06 10° NNE visible
25 Jan 4.5 19:53:40 10° SSW 19:58:18 36° W 20:02:57 10° NNW visible
26 Jan 6.6 06:33:52 10° E 06:34:37 10° E 06:35:23 10° ESE visible
26 Jan 2.9 19:16:27 10° SSE 19:21:32 88° E 19:26:37 10° NNW visible
27 Jan 3.5 18:40:22 10° SE 18:44:56 35° ENE 18:49:31 10° N visible
27 Jan 5.6 20:20:25 10° SW 20:23:56 19° W 20:27:28 10° NW visible
28 Jan 4.0 19:42:12 10° S 19:47:04 47° W 19:51:57 10° NNW visible
29 Jan 2.9 19:05:20 10° SSE 19:10:21 68° ENE 19:15:24 10° N visible
30 Jan 3.9 18:29:35 10° SE 18:33:48 27° ENE 18:38:02 10° NNE visible
30 Jan 5.2 20:08:35 10° SSW 20:12:40 25° W 20:16:48 10° NW visible
31 Jan 6.1 06:46:01 10° ENE 06:49:04 16° E 06:52:07 10° SE visible
31 Jan 3.4 19:30:51 10° S 19:35:51 63° W 19:40:53 10° NNW visible
